User: anonymous   Login
Location: Caltech
(34.1382°N, 118.1253°W)
Time: 01:39:00
(UTC-08:00)
Language:

Cosmos 44 Rocket - Orbit

View from above orbital plane
View from above orbital plane
View from above satellite
View from above satellite

Ground track
Ground track

The orbit data is extracted from the following two-line orbital elements,

1   877U 64053B   16343.80304484  .00000067  00000-0  13547-4 0  9995
2   877  65.0773 128.6019 0070406 199.3731 160.5188 14.59271333773733
Epoch (UTC): 08 December 2016 19:16:23
Eccentricity: 0.0070406
inclination: 65.0773°
perigee height: 646 km
apogee height: 745 km
right ascension of ascending node: 128.6019°
argument of perigee: 199.3731°
revolutions per day: 14.59271333
mean anomaly at epoch: 160.5188°
orbit number at epoch: 77373

The dashed part of the orbit path shows where the satellite is in the earth's shadow,  

DLR